METAR Formatted Surface Weather Observation
Issued by NWS

Home | Current Version | Previous Version | Text Only | Print | Product List | Glossary On
Versions: 1 2 3 4 5 6 7 8 9 10 11 12 13 14 15 16 17 18 19 20 21 22 23 24 25
000
SAUS45 KPSR 271457
MTRFHU
METAR KFHU 271456Z AUTO 15005KT 10SM CLR 10/M06 A3035 RMK AO2 SLP258
T01001061 51013 $



USA.gov is the U.S. government's official web portal to all federal, state and local government web resources and services.